This is the latest recevied weather packets stored in our database for station/object K4KMJ. If no packets are shown the sender has not sent any weather packets the latest 10 day(s).
| Time | Temp. | Humidity | Pressure | Rain* | Wind** | Luminosity | Snow |
|---|---|---|---|---|---|---|---|
| 1777832457 | 23.33° C | 72% | 1019.7 hPa | 0 mm | - | 269 W/m² | - |
| 1777832153 | 23.89° C | 72% | 1020 hPa | 0 mm | - | 300 W/m² | - |
| 1777831849 | 24.44° C | 72% | 1019.8 hPa | 0 mm | - | 392 W/m² | - |
| 1777831547 | 23.89° C | 72% | 1019.9 hPa | 0 mm | - | 878 W/m² | - |
| 1777831244 | 23.89° C | 72% | 1020.1 hPa | 0 mm | - | 1116 W/m² | - |
| 1777830942 | 23.89° C | 73% | 1020.1 hPa | 0 mm | - | 595 W/m² | - |
| 1777830639 | 23.89° C | 73% | 1020 hPa | 0 mm | - | 360 W/m² | - |
| 1777830336 | 23.33° C | 73% | 1020 hPa | 0 mm | - | 1153 W/m² | - |
| 1777830032 | 23.89° C | 73% | 1019.8 hPa | 0 mm | - | 287 W/m² | - |
| 1777829727 | 23.33° C | 73% | 1019.8 hPa | 0 mm | - | 1029 W/m² | - |
| 1777829424 | 23.33° C | 73% | 1020 hPa | 0 mm | - | 796 W/m² | - |
| 1777829122 | 23.89° C | 73% | 1020.1 hPa | 0 mm | - | 486 W/m² | - |
| 1777828819 | 23.89° C | 73% | 1020.1 hPa | 0 mm | - | 414 W/m² | - |
| 1777828515 | 23.33° C | 73% | 1020.1 hPa | 0 mm | - | 369 W/m² | - |
| 1777828213 | 23.33° C | 73% | 1020.2 hPa | 0 mm | - | 383 W/m² | - |
| 1777827909 | 23.89° C | 73% | 1020 hPa | 0 mm | - | 1052 W/m² | - |
| 1777827606 | 23.89° C | 73% | 1020 hPa | 0 mm | - | 1083 W/m² | - |
| 1777827303 | 23.89° C | 73% | 1020.3 hPa | 0 mm | - | 1131 W/m² | - |
| 1777826994 | 23.33° C | 73% | 1020.3 hPa | 0 mm | - | 1047 W/m² | - |
| 1777826691 | 23.89° C | 74% | 1020.3 hPa | 0 mm | - | 1087 W/m² | - |
| 1777826387 | 23.89° C | 74% | 1020.4 hPa | 0 mm | - | 998 W/m² | - |
| 1777826084 | 23.33° C | 75% | 1020.5 hPa | 0 mm | - | 338 W/m² | - |
| 1777825775 | 23.33° C | 75% | 1020.3 hPa | 0 mm | - | 1029 W/m² | - |
| 1777825473 | 23.89° C | 76% | 1020.6 hPa | 0 mm | - | 996 W/m² | - |
| 1777825170 | 22.78° C | 77% | 1020.5 hPa | 0 mm | - | 891 W/m² | - |
* Rain latest hour (hover to see other rain measurements)
** Current wind speed in m/s (hover to see current wind gust speed)